Weather History for Tekamah, NE

Change the Weather History Date:

Thursday, January 10, 2013

  Actual Average Record
Temperature  
Mean Temperature 30 °F -  
Max Temperature 37 °F 26 °F 61 °F (2012)
Min Temperature 23 °F 5 °F -22 °F (1982)
Degree Days  
Heating Degree Days 35    
Moisture  
Dew Point 29 °F    
Average Humidity 85    
Maximum Humidity 96    
Minimum Humidity 65    
Precipitation  
Precipitation 0.02 in - - ()
Sea Level Pressure  
Sea Level Pressure 29.97 in    
Wind  
Wind Speed 7 mph (SSE)    
Max Wind Speed 9 mph    
Max Gust Speed -    
Visibility 6 miles    
Events Fog , Rain    
Averages and records for this station are not official NWS values.
T = Trace of Precipitation, MM = Missing Value Source: NWS Daily Summary

Daily Weather History Graph

Daily Weather History Graph

Search for Another Location

Airport:

Trip Planner

Search our weather history database for the weather conditions in past years. The results will help you decide how hot, cold, wet, or windy it might be!

Date:

Astronomy

Jan. 10, 2013 Rise Set
Actual Time 7:51 AM CST 5:13 PM CST
Civil Twilight 7:20 AM CST 5:44 PM CST
Nautical Twilight 6:45 AM CST 6:19 PM CST
Astronomical Twilight 6:12 AM CST 6:52 PM CST
Moon 6:32 AM CST (1/10) 4:23 PM CST (1/10)
Length of Visible Light 10h 24m
Length of Day
9h 22m
Waning Crescent, 2% of the Moon is Illuminated
Jan 10
Waning Crescent
Jan 11
New
Jan 18
First Quarter
Jan 26
Full
Feb 3
Last Quarter

Hourly Weather History & Observations

Time (CST) Temp. Windchill Dew Point Humidity Pressure Visibility Wind Dir Wind Speed Gust Speed Precip Events Conditions
12:54 AM 30.9 °F 23.5 °F 24.1 °F 76% 30.32 in 10.0 mi SSE 8.1 mph - N/A   Clear
1:54 AM 30.0 °F 24.1 °F 24.1 °F 79% 30.31 in 10.0 mi SSE 5.8 mph - N/A   Clear
2:54 AM 24.1 °F 17.0 °F 19.0 °F 81% 30.30 in 9.0 mi ESE 5.8 mph - N/A   Clear
3:54 AM 23.0 °F 18.4 °F 19.0 °F 85% 30.29 in 8.0 mi SSE 3.5 mph - N/A   Clear
4:54 AM 23.0 °F 17.0 °F 19.9 °F 88% 30.26 in 7.0 mi South 4.6 mph - N/A   Clear
5:54 AM 25.0 °F 17.1 °F 23.0 °F 92% 30.23 in 6.0 mi South 6.9 mph - N/A   Clear
6:54 AM 30.0 °F 21.7 °F 24.1 °F 79% 30.19 in 10.0 mi SE 9.2 mph - N/A   Clear
7:54 AM 33.1 °F 25.5 °F 25.0 °F 72% 30.17 in 10.0 mi SE 9.2 mph - N/A   Clear
8:54 AM 34.0 °F 28.0 °F 25.0 °F 70% 30.16 in 10.0 mi SE 6.9 mph - N/A   Clear
9:54 AM 36.0 °F 29.0 °F 27.0 °F 70% 30.12 in 10.0 mi SE 9.2 mph - N/A   Overcast
10:10 AM 37.4 °F 30.8 °F 26.6 °F 65% 30.08 in 10.0 mi SE 9.2 mph - N/A   Overcast
10:54 AM 36.0 °F 32.1 °F 28.9 °F 76% 30.07 in 10.0 mi SE 4.6 mph - N/A   Overcast
11:54 AM 37.0 °F 32.4 °F 28.9 °F 73% 29.99 in 10.0 mi SE 5.8 mph - N/A   Overcast
12:54 PM 36.0 °F 32.1 °F 30.0 °F 79% 29.94 in 10.0 mi SE 4.6 mph - 0.00 in   Overcast
1:54 PM 36.0 °F 33.3 °F 32.0 °F 86% 29.92 in 5.0 mi South 3.5 mph - 0.01 in Rain Light Rain
2:54 PM 36.0 °F 30.3 °F 32.0 °F 86% 29.90 in 10.0 mi SSE 6.9 mph - 0.00 in   Overcast
3:49 PM 37.4 °F 31.4 °F 33.8 °F 87% 29.83 in 5.0 mi SE 8.1 mph - N/A   Overcast
3:54 PM 36.0 °F 29.6 °F 33.1 °F 89% 29.85 in 5.0 mi SE 8.1 mph - N/A   Overcast
4:54 PM 36.0 °F 29.0 °F 32.0 °F 86% 29.85 in 8.0 mi SE 9.2 mph - N/A   Overcast
5:43 PM 35.6 °F 28.6 °F 33.8 °F 93% 29.79 in 5.0 mi SE 9.2 mph - 0.00 in Rain Light Rain
5:54 PM 36.0 °F 29.6 °F 34.0 °F 93% 29.82 in 4.0 mi SSE 8.1 mph - 0.01 in Rain Light Rain
6:22 PM 35.6 °F 30.7 °F 33.8 °F 93% 29.79 in 3.0 mi SSE 5.8 mph - 0.00 in   Overcast
6:29 PM 35.6 °F 30.7 °F 33.8 °F 93% 29.78 in 2.5 mi SSE 5.8 mph - 0.00 in   Overcast
6:54 PM 35.1 °F 28.6 °F 34.0 °F 96% 29.80 in 2.5 mi SE 8.1 mph - 0.00 in   Overcast
7:22 PM 35.6 °F 29.2 °F 33.8 °F 93% 29.76 in 1.8 mi SE 8.1 mph - N/A   Overcast
7:31 PM 35.6 °F 29.2 °F 33.8 °F 93% 29.75 in 1.8 mi SE 8.1 mph - N/A   Overcast
7:54 PM 35.1 °F 30.1 °F 34.0 °F 96% 29.77 in 0.8 mi South 5.8 mph - N/A   Overcast
8:54 PM 34.0 °F 28.0 °F 33.1 °F 96% 29.78 in 0.2 mi South 6.9 mph - N/A Fog Fog
9:54 PM 35.1 °F 30.1 °F 34.0 °F 96% 29.75 in 0.2 mi South 5.8 mph - N/A Fog Fog
10:54 PM 35.1 °F 30.1 °F 33.1 °F 92% 29.71 in 0.2 mi South 5.8 mph - N/A Fog Fog
11:54 PM 34.0 °F - 33.1 °F 96% 29.70 in 0.2 mi Calm Calm - N/A Fog Fog